This is the latest recevied weather packets stored in our database for station/object W9KHP-1. If no packets are shown the sender has not sent any weather packets the latest 10 day(s).
| Time | Temp. | Humidity | Pressure | Rain* | Wind** | Luminosity | Snow |
|---|---|---|---|---|---|---|---|
| 1777781998 | 6.67° C | 75% | 1022 hPa | 0 mm | - | 0 W/m² | - |
| 1777781695 | 6.67° C | 78% | 1021.9 hPa | 0 mm | - | 0 W/m² | - |
| 1777781393 | 6.67° C | 77% | 1022 hPa | 0 mm | - | 0 W/m² | - |
| 1777781090 | 6.67° C | 77% | 1022 hPa | 0 mm | - | 0 W/m² | - |
| 1777780787 | 6.67° C | 75% | 1022 hPa | 0 mm | - | 0 W/m² | - |
| 1777780484 | 7.22° C | 73% | 1022 hPa | 0 mm | - | 0 W/m² | - |
| 1777780182 | 7.22° C | 73% | 1021.9 hPa | 0 mm | - | 0 W/m² | - |
| 1777779878 | 7.22° C | 74% | 1021.7 hPa | 0 mm | - | 0 W/m² | - |
| 1777779576 | 7.22° C | 75% | 1021.9 hPa | 0 mm | - | 0 W/m² | - |
| 1777779273 | 7.22° C | 79% | 1021.9 hPa | 0 mm | - | 0 W/m² | - |
| 1777778971 | 7.22° C | 76% | 1021.8 hPa | 0 mm | - | 0 W/m² | - |
| 1777778669 | 7.22° C | 74% | 1021.9 hPa | 0 mm | - | 0 W/m² | - |
| 1777778366 | 7.22° C | 74% | 1021.9 hPa | 0 mm | - | 0 W/m² | - |
| 1777778064 | 7.22° C | 76% | 1021.9 hPa | 0 mm | - | 0 W/m² | - |
| 1777777760 | 7.78° C | 78% | 1021.8 hPa | 0 mm | - | 0 W/m² | - |
| 1777777457 | 7.78° C | 77% | 1021.6 hPa | 0 mm | - | 0 W/m² | - |
| 1777777154 | 7.78° C | 77% | 1021.8 hPa | 0 mm | - | 0 W/m² | - |
| 1777776851 | 7.22° C | 75% | 1021.8 hPa | 0 mm | - | 0 W/m² | - |
| 1777776548 | 7.22° C | 79% | 1021.6 hPa | 0 mm | - | 0 W/m² | - |
| 1777776244 | 7.22° C | 79% | 1021.7 hPa | 0 mm | - | 0 W/m² | - |
| 1777775941 | 7.22° C | 77% | 1021.4 hPa | 0 mm | - | 0 W/m² | - |
| 1777775639 | 7.22° C | 81% | 1021.6 hPa | 0 mm | - | 0 W/m² | - |
| 1777775335 | 7.78° C | 81% | 1021.4 hPa | 0 mm | - | 0 W/m² | - |
| 1777775029 | 7.78° C | 80% | 1021.4 hPa | 0 mm | - | 0 W/m² | - |
| 1777774726 | 7.78° C | 80% | 1021.4 hPa | 0 mm | - | 0 W/m² | - |
* Rain latest hour (hover to see other rain measurements)
** Current wind speed in m/s (hover to see current wind gust speed)